Time,TemperatureF,DewpointF,PressureIn,WindDirection,WindDirectionDegrees,WindSpeedMPH,WindSpeedGustMPH,Humidity,HourlyPrecipIn,Conditions,Clouds,dailyrainin,SoftwareType,DateUTC
2013-07-12 00:02:00,72.0,66.0,30.03,SW,225,3.0,-999.0,83,-99.99,,,-99.99,,2013-07-12 05:02:00,
2013-07-12 00:11:00,72.0,66.0,30.04,SSE,154,7.0,-999.0,83,-99.99,,,-99.99,,2013-07-12 05:11:00,
2013-07-12 00:22:00,72.0,66.0,30.04,SSW,204,5.0,-999.0,83,-99.99,,,-99.99,,2013-07-12 05:22:00,
2013-07-12 00:32:00,72.0,66.0,30.04,SSE,154,7.0,-999.0,83,-99.99,,,-99.99,,2013-07-12 05:32:00,
2013-07-12 00:43:00,70.0,66.0,30.04,SE,135,2.0,-999.0,88,-99.99,,,-99.99,,2013-07-12 05:43:00,
2013-07-12 00:53:00,70.0,66.0,30.04,North,0,9.0,-999.0,88,-99.99,,,-99.99,,2013-07-12 05:53:00,
2013-07-12 01:01:00,70.0,66.0,30.04,SE,135,7.0,-999.0,88,-99.99,,,-99.99,,2013-07-12 06:01:00,
2013-07-12 01:11:00,70.0,66.0,30.04,SSE,155,5.0,-999.0,88,-99.99,,,-99.99,,2013-07-12 06:11:00,
2013-07-12 01:22:00,70.0,66.0,30.04,SSE,155,6.0,-999.0,88,-99.99,,,-99.99,,2013-07-12 06:22:00,
2013-07-12 01:32:00,70.0,66.0,30.03,SW,225,6.0,-999.0,88,-99.99,,,-99.99,,2013-07-12 06:32:00,
2013-07-12 01:42:00,70.0,66.0,30.04,North,0,6.0,-999.0,88,-99.99,,,-99.99,,2013-07-12 06:42:00,
2013-07-12 01:52:00,70.0,66.0,30.03,SE,135,6.0,-999.0,88,-99.99,,,-99.99,,2013-07-12 06:52:00,
2013-07-12 02:02:00,68.0,64.0,30.04,ESE,114,6.0,-999.0,88,-99.99,,,-99.99,,2013-07-12 07:02:00,
2013-07-12 02:12:00,70.0,66.0,30.04,SSW,205,3.0,-999.0,88,-99.99,,,-99.99,,2013-07-12 07:12:00,
2013-07-12 02:22:00,68.0,64.0,30.04,North,0,8.0,-999.0,88,-99.99,,,-99.99,,2013-07-12 07:22:00,
2013-07-12 02:32:00,68.0,64.0,30.04,SSW,205,7.0,-999.0,88,-99.99,,,-99.99,,2013-07-12 07:32:00,
2013-07-12 02:43:00,68.0,64.0,30.03,SW,225,2.0,-999.0,88,-99.99,,,-99.99,,2013-07-12 07:43:00,
2013-07-12 02:52:00,66.0,64.0,30.03,North,0,6.0,-999.0,93,-99.99,,,-99.99,,2013-07-12 07:52:00,
2013-07-12 03:01:00,66.0,64.0,30.03,SSE,155,10.0,-999.0,93,-99.99,,,-99.99,,2013-07-12 08:01:00,
2013-07-12 03:11:00,66.0,64.0,30.03,SSW,205,7.0,-999.0,93,-99.99,,,-99.99,,2013-07-12 08:11:00,
2013-07-12 03:21:00,66.0,64.0,30.03,SSE,154,3.0,-999.0,93,-99.99,,,-99.99,,2013-07-12 08:21:00,
2013-07-12 03:32:00,66.0,64.0,30.03,SSW,204,5.0,-999.0,93,-99.99,,,-99.99,,2013-07-12 08:32:00,
2013-07-12 03:42:00,66.0,64.0,30.03,ESE,114,5.0,-999.0,93,-99.99,,,-99.99,,2013-07-12 08:42:00,
2013-07-12 03:53:00,66.0,64.0,30.03,North,0,2.0,-999.0,93,-99.99,,,-99.99,,2013-07-12 08:53:00,
2013-07-12 04:02:00,66.0,64.0,30.03,SSE,155,5.0,-999.0,93,-99.99,,,-99.99,,2013-07-12 09:02:00,
2013-07-12 04:12:00,66.0,64.0,30.03,North,0,0.0,-999.0,93,-99.99,,,-99.99,,2013-07-12 09:12:00,
2013-07-12 04:22:00,66.0,64.0,30.03,SE,135,3.0,-999.0,93,-99.99,,,-99.99,,2013-07-12 09:22:00,
2013-07-12 04:32:00,66.0,64.0,30.03,North,0,0.0,-999.0,93,-99.99,,,-99.99,,2013-07-12 09:32:00,
2013-07-12 04:42:00,66.0,64.0,30.03,SE,135,6.0,-999.0,93,-99.99,,,-99.99,,2013-07-12 09:42:00,
2013-07-12 04:52:00,66.0,64.0,30.03,North,0,0.0,-999.0,93,-99.99,,,-99.99,,2013-07-12 09:52:00,
2013-07-12 05:01:00,66.0,64.0,30.03,ESE,115,3.0,-999.0,93,-99.99,,,-99.99,,2013-07-12 10:01:00,
2013-07-12 05:11:00,66.0,63.0,30.03,North,0,6.0,-999.0,88,-99.99,,,-99.99,,2013-07-12 10:11:00,
2013-07-12 05:22:00,66.0,63.0,30.03,North,0,6.0,-999.0,88,-99.99,,,-99.99,,2013-07-12 10:22:00,
2013-07-12 05:33:00,66.0,63.0,30.03,SSW,205,12.0,-999.0,88,-99.99,,,-99.99,,2013-07-12 10:33:00,
2013-07-12 05:42:00,66.0,63.0,30.03,SSE,154,3.0,-999.0,88,-99.99,,,-99.99,,2013-07-12 10:42:00,
2013-07-12 05:52:00,66.0,63.0,30.03,West,269,5.0,-999.0,88,-99.99,,,-99.99,,2013-07-12 10:52:00,
2013-07-12 06:02:00,64.0,63.0,30.03,SSE,155,5.0,-999.0,93,-99.99,,,-99.99,,2013-07-12 11:02:00,
2013-07-12 06:11:00,64.0,63.0,30.03,North,0,6.0,-999.0,93,-99.99,,,-99.99,,2013-07-12 11:11:00,
2013-07-12 06:22:00,64.0,63.0,30.03,SSE,154,7.0,-999.0,93,-99.99,,,-99.99,,2013-07-12 11:22:00,
2013-07-12 06:32:00,64.0,63.0,30.02,SSW,204,5.0,-999.0,93,-99.99,,,-99.99,,2013-07-12 11:32:00,
2013-07-12 06:43:00,64.0,63.0,30.02,SE,135,10.0,-999.0,93,-99.99,,,-99.99,,2013-07-12 11:43:00,
2013-07-12 06:52:00,64.0,63.0,30.02,North,0,3.0,-999.0,93,-99.99,,,-99.99,,2013-07-12 11:52:00,
2013-07-12 07:01:00,64.0,63.0,30.02,North,0,5.0,-999.0,93,-99.99,,,-99.99,,2013-07-12 12:01:00,
2013-07-12 07:11:00,64.0,63.0,30.02,North,0,5.0,-999.0,93,-99.99,,,-99.99,,2013-07-12 12:11:00,
2013-07-12 07:22:00,66.0,64.0,30.01,North,0,7.0,-999.0,93,-99.99,,,-99.99,,2013-07-12 12:22:00,
2013-07-12 07:32:00,66.0,63.0,30.02,SSE,154,7.0,-999.0,88,-99.99,,,-99.99,,2013-07-12 12:32:00,
2013-07-12 07:43:00,66.0,63.0,30.02,ESE,115,3.0,-999.0,88,-99.99,,,-99.99,,2013-07-12 12:43:00,
2013-07-12 07:52:00,66.0,64.0,30.02,SSW,205,12.0,-999.0,93,-99.99,,,-99.99,,2013-07-12 12:52:00,
2013-07-12 08:01:00,66.0,64.0,30.02,East,90,6.0,-999.0,93,-99.99,,,-99.99,,2013-07-12 13:01:00,
2013-07-12 08:12:00,68.0,64.0,30.02,North,0,7.0,-999.0,88,-99.99,,,-99.99,,2013-07-12 13:12:00,
2013-07-12 08:22:00,68.0,64.0,30.02,North,0,6.0,-999.0,88,-99.99,,,-99.99,,2013-07-12 13:22:00,
2013-07-12 08:32:00,70.0,64.0,30.02,SE,135,8.0,-999.0,82,-99.99,,,-99.99,,2013-07-12 13:32:00,
2013-07-12 08:43:00,70.0,64.0,30.01,SSE,155,5.0,-999.0,82,-99.99,,,-99.99,,2013-07-12 13:43:00,
2013-07-12 08:53:00,70.0,64.0,30.02,SSE,154,3.0,-999.0,82,-99.99,,,-99.99,,2013-07-12 13:53:00,
2013-07-12 09:02:00,70.0,64.0,30.01,North,0,6.0,-999.0,82,-99.99,,,-99.99,,2013-07-12 14:02:00,
2013-07-12 09:11:00,72.0,64.0,30.01,North,0,8.0,-999.0,78,-99.99,,,-99.99,,2013-07-12 14:11:00,
2013-07-12 09:22:00,72.0,64.0,30.01,SSE,154,7.0,-999.0,78,-99.99,,,-99.99,,2013-07-12 14:22:00,
2013-07-12 09:32:00,72.0,64.0,30.01,North,0,8.0,-999.0,78,-99.99,,,-99.99,,2013-07-12 14:32:00,
2013-07-12 09:43:00,73.0,64.0,30.01,SSE,154,7.0,-999.0,73,-99.99,,,-99.99,,2013-07-12 14:43:00,
2013-07-12 09:53:00,73.0,64.0,30.01,North,0,10.0,-999.0,73,-99.99,,,-99.99,,2013-07-12 14:53:00,
2013-07-12 10:01:00,73.0,66.0,30.01,North,0,7.0,-999.0,78,-99.99,,,-99.99,,2013-07-12 15:01:00,
2013-07-12 10:11:00,73.0,66.0,30.01,SSE,154,13.0,-999.0,78,-99.99,,,-99.99,,2013-07-12 15:11:00,
2013-07-12 10:22:00,75.0,66.0,30.01,SSW,204,9.0,-999.0,73,-99.99,,,-99.99,,2013-07-12 15:22:00,
2013-07-12 10:33:00,75.0,66.0,30.00,SE,135,9.0,-999.0,73,-99.99,,,-99.99,,2013-07-12 15:33:00,
2013-07-12 10:43:00,75.0,66.0,30.00,SSW,205,13.0,-999.0,73,-99.99,,,-99.99,,2013-07-12 15:43:00,
2013-07-12 10:52:00,75.0,66.0,29.99,SSE,154,12.0,-999.0,73,-99.99,,,-99.99,,2013-07-12 15:52:00,
2013-07-12 11:01:00,75.0,66.0,29.99,North,0,12.0,-999.0,73,-99.99,,,-99.99,,2013-07-12 16:01:00,
2013-07-12 11:11:00,77.0,66.0,29.99,SSE,154,8.0,-999.0,69,-99.99,,,-99.99,,2013-07-12 16:11:00,
2013-07-12 11:22:00,77.0,66.0,29.99,North,0,7.0,-999.0,69,-99.99,,,-99.99,,2013-07-12 16:22:00,
2013-07-12 11:32:00,79.0,68.0,29.99,SW,225,5.0,-999.0,69,-99.99,,,-99.99,,2013-07-12 16:32:00,
2013-07-12 11:42:00,79.0,66.0,29.98,SSW,205,8.0,-999.0,65,-99.99,,,-99.99,,2013-07-12 16:42:00,
2013-07-12 11:55:00,79.0,68.0,29.98,SSW,204,10.0,-999.0,69,-99.99,,,-99.99,,2013-07-12 16:55:00,
2013-07-12 12:05:00,79.0,68.0,29.98,SSW,204,10.0,-999.0,69,-99.99,,,-99.99,,2013-07-12 17:05:00,
2013-07-12 12:23:00,81.0,68.0,29.98,SSE,154,8.0,-999.0,65,-99.99,,,-99.99,,2013-07-12 17:23:00,
2013-07-12 12:44:00,81.0,68.0,29.98,North,0,14.0,-999.0,65,-99.99,,,-99.99,,2013-07-12 17:44:00,
2013-07-12 12:53:00,81.0,68.0,29.97,SSW,205,12.0,-999.0,65,-99.99,,,-99.99,,2013-07-12 17:53:00,
2013-07-12 13:13:00,81.0,68.0,29.97,SSE,155,9.0,-999.0,65,-99.99,,,-99.99,,2013-07-12 18:13:00,
2013-07-12 13:25:00,82.0,70.0,29.96,SW,225,8.0,-999.0,65,-99.99,,,-99.99,,2013-07-12 18:25:00,
2013-07-12 13:34:00,82.0,70.0,29.96,SE,135,6.0,-999.0,65,-99.99,,,-99.99,,2013-07-12 18:34:00,
2013-07-12 13:46:00,82.0,68.0,29.96,SW,225,8.0,-999.0,61,-99.99,,,-99.99,,2013-07-12 18:46:00,
2013-07-12 13:53:00,82.0,70.0,29.96,SE,135,15.0,-999.0,65,-99.99,,,-99.99,,2013-07-12 18:53:00,
2013-07-12 14:03:00,82.0,70.0,29.95,North,0,18.0,-999.0,65,-99.99,,,-99.99,,2013-07-12 19:03:00,
2013-07-12 14:32:00,82.0,70.0,29.95,SSE,154,13.0,-999.0,65,-99.99,,,-99.99,,2013-07-12 19:32:00,
2013-07-12 14:44:00,84.0,70.0,29.95,SSW,204,9.0,-999.0,62,-99.99,,,-99.99,,2013-07-12 19:44:00,
2013-07-12 15:02:00,84.0,72.0,29.95,North,0,7.0,-999.0,65,-99.99,,,-99.99,,2013-07-12 20:02:00,
2013-07-12 15:13:00,84.0,70.0,29.94,SSE,155,14.0,-999.0,62,-99.99,,,-99.99,,2013-07-12 20:13:00,
2013-07-12 15:23:00,84.0,72.0,29.94,ESE,115,8.0,-999.0,65,-99.99,,,-99.99,,2013-07-12 20:23:00,
2013-07-12 15:43:00,86.0,72.0,29.94,SW,225,10.0,-999.0,62,-99.99,,,-99.99,,2013-07-12 20:43:00,
2013-07-12 15:54:00,86.0,72.0,29.94,SSE,155,6.0,-999.0,62,-99.99,,,-99.99,,2013-07-12 20:54:00,
2013-07-12 16:02:00,86.0,72.0,29.93,North,0,12.0,-999.0,62,-99.99,,,-99.99,,2013-07-12 21:02:00,
2013-07-12 16:14:00,86.0,72.0,29.93,SSW,204,9.0,-999.0,62,-99.99,,,-99.99,,2013-07-12 21:14:00,
2013-07-12 16:24:00,86.0,72.0,29.94,SSE,155,9.0,-999.0,62,-99.99,,,-99.99,,2013-07-12 21:24:00,
2013-07-12 16:33:00,86.0,72.0,29.94,SSE,154,16.0,-999.0,62,-99.99,,,-99.99,,2013-07-12 21:33:00,
2013-07-12 16:44:00,86.0,72.0,29.93,SE,135,18.0,-999.0,62,-99.99,,,-99.99,,2013-07-12 21:44:00,
2013-07-12 16:54:00,86.0,72.0,29.93,SW,225,12.0,-999.0,62,-99.99,,,-99.99,,2013-07-12 21:54:00,
2013-07-12 17:02:00,86.0,72.0,29.92,WSW,250,6.0,-999.0,62,-99.99,,,-99.99,,2013-07-12 22:02:00,
2013-07-12 17:14:00,86.0,72.0,29.92,ESE,114,15.0,-999.0,62,-99.99,,,-99.99,,2013-07-12 22:14:00,
2013-07-12 17:22:00,86.0,72.0,29.92,North,0,13.0,-999.0,62,-99.99,,,-99.99,,2013-07-12 22:22:00,
2013-07-12 17:33:00,86.0,72.0,29.92,SSW,204,14.0,-999.0,62,-99.99,,,-99.99,,2013-07-12 22:33:00,
2013-07-12 17:53:00,86.0,72.0,29.92,SE,135,6.0,-999.0,62,-99.99,,,-99.99,,2013-07-12 22:53:00,
2013-07-12 18:03:00,86.0,72.0,29.92,SSW,205,16.0,-999.0,62,-99.99,,,-99.99,,2013-07-12 23:03:00,
2013-07-12 18:12:00,86.0,72.0,29.92,ESE,115,13.0,-999.0,62,-99.99,,,-99.99,,2013-07-12 23:12:00,
2013-07-12 18:22:00,86.0,73.0,29.92,SE,135,8.0,-999.0,66,-99.99,,,-99.99,,2013-07-12 23:22:00,
2013-07-12 18:33:00,86.0,73.0,29.92,North,0,12.0,-999.0,66,-99.99,,,-99.99,,2013-07-12 23:33:00,
2013-07-12 18:42:00,86.0,73.0,29.92,SSW,204,9.0,-999.0,66,-99.99,,,-99.99,,2013-07-12 23:42:00,
2013-07-12 18:53:00,84.0,73.0,29.92,SSW,204,9.0,-999.0,70,-99.99,,,-99.99,,2013-07-12 23:53:00,
2013-07-12 19:03:00,84.0,73.0,29.92,SE,135,9.0,-999.0,70,-99.99,,,-99.99,,2013-07-13 00:03:00,
2013-07-12 19:15:00,84.0,72.0,29.91,SSW,205,7.0,-999.0,65,-99.99,,,-99.99,,2013-07-13 00:15:00,
2013-07-12 19:24:00,84.0,73.0,29.91,East,90,6.0,-999.0,70,-99.99,,,-99.99,,2013-07-13 00:24:00,
2013-07-12 19:32:00,84.0,73.0,29.92,SE,135,9.0,-999.0,70,-99.99,,,-99.99,,2013-07-13 00:32:00,
2013-07-12 19:45:00,84.0,72.0,29.92,North,0,12.0,-999.0,65,-99.99,,,-99.99,,2013-07-13 00:45:00,
2013-07-12 19:54:00,84.0,73.0,29.92,SSE,154,12.0,-999.0,70,-99.99,,,-99.99,,2013-07-13 00:54:00,
2013-07-12 20:02:00,84.0,73.0,29.92,North,0,6.0,-999.0,70,-99.99,,,-99.99,,2013-07-13 01:02:00,
2013-07-12 20:11:00,82.0,72.0,29.93,SSE,155,10.0,-999.0,69,-99.99,,,-99.99,,2013-07-13 01:11:00,
2013-07-12 20:24:00,82.0,72.0,29.93,SSE,154,12.0,-999.0,69,-99.99,,,-99.99,,2013-07-13 01:24:00,
2013-07-12 20:54:00,82.0,73.0,29.94,North,0,7.0,-999.0,74,-99.99,,,-99.99,,2013-07-13 01:54:00,
2013-07-12 21:04:00,82.0,73.0,29.93,North,0,3.0,-999.0,74,-99.99,,,-99.99,,2013-07-13 02:04:00,
2013-07-12 21:14:00,81.0,72.0,29.93,SSW,205,7.0,-999.0,74,-99.99,,,-99.99,,2013-07-13 02:14:00,
2013-07-12 21:22:00,81.0,72.0,29.94,SE,135,7.0,-999.0,74,-99.99,,,-99.99,,2013-07-13 02:22:00,
2013-07-12 21:35:00,81.0,72.0,29.94,North,0,16.0,-999.0,74,-99.99,,,-99.99,,2013-07-13 02:35:00,
2013-07-12 21:45:00,81.0,72.0,29.93,SE,135,6.0,-999.0,74,-99.99,,,-99.99,,2013-07-13 02:45:00,
2013-07-12 21:53:00,81.0,72.0,29.93,ESE,114,10.0,-999.0,74,-99.99,,,-99.99,,2013-07-13 02:53:00,
2013-07-12 22:04:00,81.0,72.0,29.93,North,0,9.0,-999.0,74,-99.99,,,-99.99,,2013-07-13 03:04:00,
2013-07-12 22:12:00,79.0,72.0,29.94,North,0,3.0,-999.0,78,-99.99,,,-99.99,,2013-07-13 03:12:00,
2013-07-12 22:24:00,79.0,72.0,29.94,SE,135,12.0,-999.0,78,-99.99,,,-99.99,,2013-07-13 03:24:00,
2013-07-12 22:34:00,79.0,72.0,29.95,North,0,3.0,-999.0,78,-99.99,,,-99.99,,2013-07-13 03:34:00,
2013-07-12 22:44:00,79.0,72.0,29.95,SSW,204,10.0,-999.0,78,-99.99,,,-99.99,,2013-07-13 03:44:00,
2013-07-12 22:54:00,79.0,72.0,29.95,SE,135,5.0,-999.0,78,-99.99,,,-99.99,,2013-07-13 03:54:00,
2013-07-12 23:01:00,79.0,72.0,29.95,SSW,204,5.0,-999.0,78,-99.99,,,-99.99,,2013-07-13 04:01:00,
2013-07-12 23:11:00,79.0,72.0,29.96,SSW,204,5.0,-999.0,78,-99.99,,,-99.99,,2013-07-13 04:11:00,
2013-07-12 23:22:00,79.0,72.0,29.96,SSW,204,5.0,-999.0,78,-99.99,,,-99.99,,2013-07-13 04:22:00,
2013-07-12 23:32:00,77.0,72.0,29.97,SE,135,7.0,-999.0,83,-99.99,,,-99.99,,2013-07-13 04:32:00,
2013-07-12 23:43:00,77.0,72.0,29.98,SW,225,6.0,-999.0,83,-99.99,,,-99.99,,2013-07-13 04:43:00,
2013-07-12 23:52:00,77.0,72.0,29.98,East,90,7.0,-999.0,83,-99.99,,,-99.99,,2013-07-13 04:52:00,